Tracking 27188 objects as of 1-Apr-2023
HD Live streaming from Space Station
objects crossing your sky now

COSMOS 1809

Track COSMOS 1809 now!
10-day predictions
COSMOS 1809 is classified as:


NORAD ID: 17241
Int'l Code: 1986-101A
Perigee: 945.2 km
Apogee: 966.8 km
Inclination: 82.5 °
Period: 104.0 minutes
Semi major axis: 7327 km
RCS: 8.1003 m2 (large)
Launch date: December 18, 1986
Source: Commonwealth of Independent States (former USSR) (CIS)
Launch site: PLESETSK MISSILE AND SPACE COMPLEX (PKMTR)
Your satellite tracking list
Your tracking list is empty




NASA's NSSDC Master Catalog

Two Line Element Set (TLE):
1 17241U 86101A   23090.84512874  .00000117  00000-0  91487-4 0  9996
2 17241  82.5285 135.0774 0014714 209.3836 323.3483 13.84245253832749
Source of the keplerian elements: AFSPC